Time,TemperatureF,DewpointF,PressureIn,WindDirection,WindDirectionDegrees,WindSpeedMPH,WindSpeedGustMPH,Humidity,HourlyPrecipIn,Conditions,Clouds,dailyrainin,SolarRadiationWatts/m^2,SoftwareType,DateUTC
2013-04-19 00:11:00,32.0,15.0,-100.00,SW,230,12.0,18.0,49,0.00,,,0.00,0.000000,,2013-04-19 06:11:00,
2013-04-19 00:22:00,32.0,15.0,-100.00,SW,230,12.0,18.0,49,0.00,,,0.00,0.000000,,2013-04-19 06:22:00,
2013-04-19 00:32:00,32.0,15.0,-100.00,SW,230,12.0,18.0,49,0.00,,,0.00,0.000000,,2013-04-19 06:32:00,
2013-04-19 00:42:00,32.0,15.0,-100.00,SW,230,12.0,18.0,49,0.00,,,0.00,0.000000,,2013-04-19 06:42:00,
2013-04-19 00:52:00,32.0,15.0,-100.00,SW,230,12.0,18.0,49,0.00,,,0.00,0.000000,,2013-04-19 06:52:00,
2013-04-19 01:12:00,31.0,15.0,-100.00,WNW,296,13.0,20.0,51,0.00,,,-99.99,0.000000,,2013-04-19 07:12:00,
2013-04-19 01:21:00,31.0,15.0,-100.00,WNW,296,13.0,20.0,51,0.00,,,-99.99,0.000000,,2013-04-19 07:21:00,
2013-04-19 01:31:00,31.0,15.0,-100.00,WNW,296,13.0,20.0,51,0.00,,,-99.99,0.000000,,2013-04-19 07:31:00,
2013-04-19 01:42:00,31.0,15.0,-100.00,WNW,296,13.0,20.0,51,0.00,,,-99.99,0.000000,,2013-04-19 07:42:00,
2013-04-19 01:52:00,31.0,15.0,-100.00,WNW,296,13.0,20.0,51,0.00,,,-99.99,0.000000,,2013-04-19 07:52:00,
2013-04-19 02:21:00,31.0,15.0,-100.00,NW,307,14.0,25.0,51,0.00,,,0.00,0.000000,,2013-04-19 08:21:00,
2013-04-19 02:32:00,31.0,15.0,-100.00,NW,307,14.0,25.0,51,0.00,,,0.00,0.000000,,2013-04-19 08:32:00,
2013-04-19 02:42:00,31.0,15.0,-100.00,NW,307,14.0,25.0,51,0.00,,,0.00,0.000000,,2013-04-19 08:42:00,
2013-04-19 02:51:00,31.0,15.0,-100.00,NW,307,14.0,25.0,51,0.00,,,0.00,0.000000,,2013-04-19 08:51:00,
2013-04-19 03:11:00,31.0,15.0,-100.00,WNW,302,15.0,26.0,51,0.00,,,0.00,0.000000,,2013-04-19 09:11:00,
2013-04-19 03:21:00,31.0,15.0,-100.00,WNW,302,15.0,26.0,51,0.00,,,0.00,0.000000,,2013-04-19 09:21:00,
2013-04-19 03:32:00,31.0,15.0,-100.00,WNW,302,15.0,26.0,51,0.00,,,0.00,0.000000,,2013-04-19 09:32:00,
2013-04-19 03:42:00,31.0,15.0,-100.00,WNW,302,15.0,26.0,51,0.00,,,0.00,0.000000,,2013-04-19 09:42:00,
2013-04-19 03:52:00,31.0,15.0,-100.00,WNW,302,15.0,26.0,51,0.00,,,0.00,0.000000,,2013-04-19 09:52:00,
2013-04-19 04:13:00,30.0,15.0,-100.00,West,262,4.0,26.0,54,0.00,,,0.00,0.000000,,2013-04-19 10:13:00,
2013-04-19 04:23:00,30.0,15.0,-100.00,West,262,4.0,26.0,54,0.00,,,0.00,0.000000,,2013-04-19 10:23:00,
2013-04-19 04:33:00,30.0,15.0,-100.00,West,262,4.0,26.0,54,0.00,,,0.00,0.000000,,2013-04-19 10:33:00,
2013-04-19 04:42:00,30.0,15.0,-100.00,West,262,4.0,26.0,54,0.00,,,0.00,0.000000,,2013-04-19 10:42:00,
2013-04-19 04:52:00,30.0,15.0,-100.00,West,262,4.0,26.0,54,0.00,,,0.00,0.000000,,2013-04-19 10:52:00,
2013-04-19 05:11:00,30.0,15.0,-100.00,West,275,12.0,16.0,53,0.00,,,0.00,0.000000,,2013-04-19 11:11:00,
2013-04-19 05:22:00,30.0,15.0,-100.00,West,275,12.0,16.0,53,0.00,,,0.00,0.000000,,2013-04-19 11:22:00,
2013-04-19 05:32:00,30.0,15.0,-100.00,West,275,12.0,16.0,53,0.00,,,0.00,0.000000,,2013-04-19 11:32:00,
2013-04-19 05:42:00,30.0,15.0,-100.00,West,275,12.0,16.0,53,0.00,,,0.00,0.000000,,2013-04-19 11:42:00,
2013-04-19 05:52:00,30.0,15.0,-100.00,West,275,12.0,16.0,53,0.00,,,0.00,0.000000,,2013-04-19 11:52:00,
2013-04-19 06:12:00,30.0,15.0,-100.00,SW,225,3.0,19.0,54,0.00,,,0.00,0.000000,,2013-04-19 12:12:00,
2013-04-19 06:22:00,30.0,15.0,-100.00,SW,225,3.0,19.0,54,0.00,,,0.00,0.000000,,2013-04-19 12:22:00,
2013-04-19 06:32:00,30.0,15.0,-100.00,SW,225,3.0,19.0,54,0.00,,,0.00,0.000000,,2013-04-19 12:32:00,
2013-04-19 06:42:00,30.0,15.0,-100.00,SW,225,3.0,19.0,54,0.00,,,0.00,0.000000,,2013-04-19 12:42:00,
2013-04-19 06:52:00,30.0,15.0,-100.00,SW,225,3.0,19.0,54,0.00,,,0.00,0.000000,,2013-04-19 12:52:00,
2013-04-19 07:11:00,30.0,19.0,-100.00,West,267,5.0,13.0,64,0.00,,,0.00,2.000000,,2013-04-19 13:11:00,
2013-04-19 07:21:00,30.0,19.0,-100.00,West,267,5.0,13.0,64,0.00,,,0.00,2.000000,,2013-04-19 13:21:00,
2013-04-19 07:32:00,30.0,19.0,-100.00,West,267,5.0,13.0,64,0.00,,,0.00,2.000000,,2013-04-19 13:32:00,
2013-04-19 07:42:00,30.0,19.0,-100.00,West,267,5.0,13.0,64,0.00,,,0.00,2.000000,,2013-04-19 13:42:00,
2013-04-19 07:52:00,30.0,19.0,-100.00,West,267,5.0,13.0,64,0.00,,,0.00,2.000000,,2013-04-19 13:52:00,
2013-04-19 08:11:00,30.0,24.0,-100.00,WSW,250,8.0,13.0,78,0.00,,,0.00,53.000000,,2013-04-19 14:11:00,
2013-04-19 08:21:00,30.0,24.0,-100.00,WSW,250,8.0,13.0,78,0.00,,,0.00,53.000000,,2013-04-19 14:21:00,
2013-04-19 08:32:00,30.0,24.0,-100.00,WSW,250,8.0,13.0,78,0.00,,,0.00,53.000000,,2013-04-19 14:32:00,
2013-04-19 08:42:00,30.0,24.0,-100.00,WSW,250,8.0,13.0,78,0.00,,,0.00,53.000000,,2013-04-19 14:42:00,
2013-04-19 08:52:00,30.0,24.0,-100.00,WSW,250,8.0,13.0,78,0.00,,,0.00,53.000000,,2013-04-19 14:52:00,
2013-04-19 09:12:00,32.0,25.0,-100.00,WSW,237,4.0,14.0,74,0.00,,,0.00,118.000000,,2013-04-19 15:12:00,
2013-04-19 09:21:00,32.0,25.0,-100.00,WSW,237,4.0,14.0,74,0.00,,,0.00,118.000000,,2013-04-19 15:21:00,
2013-04-19 09:33:00,32.0,25.0,-100.00,WSW,237,4.0,14.0,74,0.00,,,0.00,118.000000,,2013-04-19 15:33:00,
2013-04-19 09:43:00,32.0,25.0,-100.00,WSW,237,4.0,14.0,74,0.00,,,0.00,118.000000,,2013-04-19 15:43:00,
2013-04-19 09:52:00,32.0,25.0,-100.00,WSW,237,4.0,14.0,74,0.00,,,0.00,118.000000,,2013-04-19 15:52:00,
2013-04-19 10:12:00,33.0,22.0,-100.00,SSW,200,7.0,14.0,64,0.00,,,0.00,162.000000,,2013-04-19 16:12:00,
2013-04-19 10:23:00,33.0,22.0,-100.00,SSW,200,7.0,14.0,64,0.00,,,0.00,162.000000,,2013-04-19 16:23:00,
2013-04-19 10:32:00,33.0,22.0,-100.00,SSW,200,7.0,14.0,64,0.00,,,0.00,162.000000,,2013-04-19 16:32:00,
2013-04-19 10:42:00,33.0,22.0,-100.00,SSW,200,7.0,14.0,64,0.00,,,0.00,162.000000,,2013-04-19 16:42:00,
2013-04-19 10:52:00,33.0,22.0,-100.00,SSW,200,7.0,14.0,64,0.00,,,0.00,162.000000,,2013-04-19 16:52:00,
2013-04-19 11:12:00,33.0,20.0,-100.00,South,188,8.0,15.0,58,0.00,,,0.00,217.000000,,2013-04-19 17:12:00,
2013-04-19 11:21:00,33.0,20.0,-100.00,South,188,8.0,15.0,58,0.00,,,0.00,217.000000,,2013-04-19 17:21:00,
2013-04-19 11:32:00,33.0,20.0,-100.00,South,188,8.0,15.0,58,0.00,,,0.00,217.000000,,2013-04-19 17:32:00,
2013-04-19 11:42:00,33.0,20.0,-100.00,South,188,8.0,15.0,58,0.00,,,0.00,217.000000,,2013-04-19 17:42:00,
2013-04-19 11:52:00,33.0,20.0,-100.00,South,188,8.0,15.0,58,0.00,,,0.00,217.000000,,2013-04-19 17:52:00,
2013-04-19 12:13:00,37.0,24.0,-100.00,SW,229,7.0,12.0,58,0.00,,,0.00,204.000000,,2013-04-19 18:13:00,
2013-04-19 12:22:00,37.0,24.0,-100.00,SW,229,7.0,12.0,58,0.00,,,0.00,204.000000,,2013-04-19 18:22:00,
2013-04-19 12:33:00,37.0,24.0,-100.00,SW,229,7.0,12.0,58,0.00,,,0.00,204.000000,,2013-04-19 18:33:00,
2013-04-19 12:42:00,37.0,24.0,-100.00,SW,229,7.0,12.0,58,0.00,,,0.00,204.000000,,2013-04-19 18:42:00,
2013-04-19 12:52:00,37.0,24.0,-100.00,SW,229,7.0,12.0,58,0.00,,,0.00,204.000000,,2013-04-19 18:52:00,
2013-04-19 13:11:00,40.0,25.0,-100.00,SW,228,11.0,12.0,54,0.00,,,0.00,241.000000,,2013-04-19 19:11:00,
2013-04-19 13:21:00,40.0,25.0,-100.00,SW,228,11.0,12.0,54,0.00,,,0.00,241.000000,,2013-04-19 19:21:00,
2013-04-19 13:32:00,40.0,25.0,-100.00,SW,228,11.0,12.0,54,0.00,,,0.00,241.000000,,2013-04-19 19:32:00,
2013-04-19 13:41:00,40.0,25.0,-100.00,SW,228,11.0,12.0,54,0.00,,,0.00,241.000000,,2013-04-19 19:41:00,
2013-04-19 13:52:00,40.0,25.0,-100.00,SW,228,11.0,12.0,54,0.00,,,0.00,241.000000,,2013-04-19 19:52:00,
2013-04-19 14:11:00,43.0,25.0,-100.00,WSW,237,17.0,20.0,48,0.00,,,0.00,302.000000,,2013-04-19 20:11:00,
2013-04-19 14:22:00,43.0,25.0,-100.00,WSW,237,17.0,20.0,48,0.00,,,0.00,302.000000,,2013-04-19 20:22:00,
2013-04-19 14:32:00,43.0,25.0,-100.00,WSW,237,17.0,20.0,48,0.00,,,0.00,302.000000,,2013-04-19 20:32:00,
2013-04-19 14:41:00,43.0,25.0,-100.00,WSW,237,17.0,20.0,48,0.00,,,0.00,302.000000,,2013-04-19 20:41:00,
2013-04-19 14:51:00,43.0,25.0,-100.00,WSW,237,17.0,20.0,48,0.00,,,0.00,302.000000,,2013-04-19 20:51:00,
2013-04-19 15:21:00,42.0,23.0,-100.00,SW,226,17.0,27.0,47,0.00,,,0.00,329.000000,,2013-04-19 21:21:00,
2013-04-19 15:32:00,42.0,23.0,-100.00,SW,226,17.0,27.0,47,0.00,,,0.00,329.000000,,2013-04-19 21:32:00,
2013-04-19 15:42:00,42.0,23.0,-100.00,SW,226,17.0,27.0,47,0.00,,,0.00,329.000000,,2013-04-19 21:42:00,
2013-04-19 15:52:00,42.0,23.0,-100.00,SW,226,17.0,27.0,47,0.00,,,0.00,329.000000,,2013-04-19 21:52:00,
2013-04-19 16:22:00,42.0,25.0,-100.00,WSW,256,4.0,28.0,50,0.00,,,0.00,223.000000,,2013-04-19 22:22:00,
2013-04-19 16:33:00,42.0,25.0,-100.00,WSW,256,4.0,28.0,50,0.00,,,0.00,223.000000,,2013-04-19 22:33:00,
2013-04-19 16:42:00,42.0,25.0,-100.00,WSW,256,4.0,28.0,50,0.00,,,0.00,223.000000,,2013-04-19 22:42:00,
2013-04-19 16:52:00,42.0,25.0,-100.00,WSW,256,4.0,28.0,50,0.00,,,0.00,223.000000,,2013-04-19 22:52:00,
2013-04-19 17:11:00,39.0,30.0,-100.00,WNW,301,7.0,16.0,69,0.00,,,0.00,228.000000,,2013-04-19 23:11:00,
2013-04-19 17:22:00,39.0,30.0,-100.00,WNW,301,7.0,16.0,69,0.00,,,0.00,228.000000,,2013-04-19 23:22:00,
2013-04-19 17:32:00,39.0,30.0,-100.00,WNW,301,7.0,16.0,69,0.00,,,0.00,228.000000,,2013-04-19 23:32:00,
2013-04-19 17:42:00,39.0,30.0,-100.00,WNW,301,7.0,16.0,69,0.00,,,0.00,228.000000,,2013-04-19 23:42:00,
2013-04-19 17:52:00,39.0,30.0,-100.00,WNW,301,7.0,16.0,69,0.00,,,0.00,228.000000,,2013-04-19 23:52:00,
2013-04-19 18:12:00,40.0,34.0,-100.00,West,280,6.0,19.0,78,0.02,,,0.02,234.000000,,2013-04-20 00:12:00,
2013-04-19 18:21:00,40.0,34.0,-100.00,West,280,6.0,19.0,78,0.02,,,0.02,234.000000,,2013-04-20 00:21:00,
2013-04-19 18:32:00,40.0,34.0,-100.00,West,280,6.0,19.0,78,0.02,,,0.02,234.000000,,2013-04-20 00:32:00,
2013-04-19 18:41:00,40.0,34.0,-100.00,West,280,6.0,19.0,78,0.02,,,0.02,234.000000,,2013-04-20 00:41:00,
2013-04-19 18:51:00,40.0,34.0,-100.00,West,280,6.0,19.0,78,0.02,,,0.02,234.000000,,2013-04-20 00:51:00,
2013-04-19 19:11:00,38.0,30.0,-100.00,WNW,300,7.0,13.0,73,0.01,,,0.03,135.000000,,2013-04-20 01:11:00,
2013-04-19 19:21:00,38.0,30.0,-100.00,WNW,300,7.0,13.0,73,0.01,,,0.03,135.000000,,2013-04-20 01:21:00,
2013-04-19 19:32:00,38.0,30.0,-100.00,WNW,300,7.0,13.0,73,0.01,,,0.03,135.000000,,2013-04-20 01:32:00,
2013-04-19 19:42:00,38.0,30.0,-100.00,WNW,300,7.0,13.0,73,0.01,,,0.03,135.000000,,2013-04-20 01:42:00,
2013-04-19 19:51:00,38.0,30.0,-100.00,WNW,300,7.0,13.0,73,0.01,,,0.03,135.000000,,2013-04-20 01:51:00,
2013-04-19 20:11:00,38.0,28.0,-100.00,West,264,10.0,16.0,66,0.00,,,0.03,93.000000,,2013-04-20 02:11:00,
2013-04-19 20:21:00,38.0,28.0,-100.00,West,264,10.0,16.0,66,0.00,,,0.03,93.000000,,2013-04-20 02:21:00,
2013-04-19 20:32:00,38.0,28.0,-100.00,West,264,10.0,16.0,66,0.00,,,0.03,93.000000,,2013-04-20 02:32:00,
2013-04-19 20:42:00,38.0,28.0,-100.00,West,264,10.0,16.0,66,0.00,,,0.03,93.000000,,2013-04-20 02:42:00,
2013-04-19 20:52:00,38.0,28.0,-100.00,West,264,10.0,16.0,66,0.00,,,0.03,93.000000,,2013-04-20 02:52:00,
2013-04-19 21:21:00,36.0,25.0,-100.00,West,267,10.0,20.0,63,0.00,,,0.03,13.000000,,2013-04-20 03:21:00,
2013-04-19 21:33:00,36.0,25.0,-100.00,West,267,10.0,20.0,63,0.00,,,0.03,13.000000,,2013-04-20 03:33:00,
2013-04-19 21:43:00,36.0,25.0,-100.00,West,267,10.0,20.0,63,0.00,,,0.03,13.000000,,2013-04-20 03:43:00,
2013-04-19 21:52:00,36.0,25.0,-100.00,West,267,10.0,20.0,63,0.00,,,0.03,13.000000,,2013-04-20 03:52:00,
2013-04-19 22:23:00,36.0,23.0,-100.00,WNW,286,14.0,23.0,59,0.00,,,0.03,0.000000,,2013-04-20 04:23:00,
2013-04-19 22:32:00,36.0,23.0,-100.00,WNW,286,14.0,23.0,59,0.00,,,0.03,0.000000,,2013-04-20 04:32:00,
2013-04-19 22:42:00,36.0,23.0,-100.00,WNW,286,14.0,23.0,59,0.00,,,0.03,0.000000,,2013-04-20 04:42:00,
2013-04-19 22:52:00,36.0,23.0,-100.00,WNW,286,14.0,23.0,59,0.00,,,0.03,0.000000,,2013-04-20 04:52:00,
2013-04-19 23:12:00,36.0,24.0,-100.00,West,278,10.0,29.0,62,0.00,,,0.03,0.000000,,2013-04-20 05:12:00,
2013-04-19 23:21:00,36.0,24.0,-100.00,West,278,10.0,29.0,62,0.00,,,0.03,0.000000,,2013-04-20 05:21:00,
2013-04-19 23:32:00,36.0,24.0,-100.00,West,278,10.0,29.0,62,0.00,,,0.03,0.000000,,2013-04-20 05:32:00,
2013-04-19 23:42:00,36.0,24.0,-100.00,West,278,10.0,29.0,62,0.00,,,0.03,0.000000,,2013-04-20 05:42:00,
2013-04-19 23:51:00,36.0,24.0,-100.00,West,278,10.0,29.0,62,0.00,,,0.03,0.000000,,2013-04-20 05:51:00,